SCP
-0 -0 0 0 0 -0 -0 -0 -0 -0 -0 0 0 0 0 0 0 0 0 0 0 0 0 1 1 0 0 0 0 0 0 0 0 0 0 0 0 0 0 0 0 0 0 0 0 0 0 0 0
-0 -0 0 0 0 -0 -0 -0 -0 -0 0 0 0 0 0 0 0 0 0 0 0 0 0 0 1 0 0 0 0 0 0 0 0 0 0 0 0 0 0 0 0 0 0 0 0 0 0 0 0
-0 0 0 0 0 -0 -0 -0 -0 -0 0 0 0 0 0 0 0 0 0 0 0 0 0 0 1 0 0 0 0 0 0 0 0 0 0 0 0 0 0 0 0 0 0 0 0 0 0 0 0
0 0 0 0 0 0 0 0 -0 -0 0 0 0 0 0 0 0 0 0 0 0 0 0 0 0 0 0 0 0 0 0 0 0 0 0 0 0 0 0 0 0 0 0 0 0 0 0 0 0
0 0 0 0 0 0 0 0 0 0 0 0 0 0 0 0 0 0 0 0 0 0 0 0 0 0 0 0 0 0 0 0 0 0 0 0 0 0 0 0 0 0 0 0 0 0 0 0 0
-0 0 0 0 0 0 0 0 0 0 0 0 0 0 0 0 0 0 0 0 0 0 0 0 0 0 0 0 0 0 0 0 0 0 0 0 0 0 0 0 0 0 0 0 0 0 0 0 0
0 0 0 0 0 0 0 0 0 0 0 0 0 0 0 0 0 0 0 0 0 0 0 0 0 0 0 0 0 0 0 0 0 0 0 0 0 0 0 0 0 0 0 0 0 0 0 0 0
0 0 0 0 0 0 0 0 0 0 0 0 0 0 0 0 0 0 0 0 0 0 0 0 0 0 0 0 0 0 0 0 0 0 0 0 0 0 0 0 0 0 0 0 0 0 0 0 0
0 0 0 0 0 0 0 0 0 0 0 0 0 0 0 0 0 0 0 0 0 0 0 0 0 0 0 0 0 0 0 0 0 0 0 0 0 0 0 0 0 0 0 0 0 0 0 0 0
0 0 0 0 0 0 0 0 0 0 0 0 0 0 0 0 0 0 0 0 0 0 0 0 0 0 0 0 0 0 0 0 0 0 0 0 0 0 0 0 0 0 0 0 0 0 0 0 0
0 0 0 0 0 0 0 0 0 0 0 0 0 0 0 0 0 0 0 0 0 0 0 0 0 0 0 0 0 0 0 0 0 0 0 0 0 0 0 0 0 0 0 0 0 0 0 0 0
0 0 0 0 0 0 0 0 0 0 0 0 0 0 0 0 0 0 0 0 0 0 0 0 0 0 0 0 0 0 0 0 0 0 0 0 0 0 0 0 0 0 0 0 0 0 0 0 0
0 0 0 0 0 0 0 0 0 0 0 0 0 1 1 0 0 0 0 0 0 0 0 0 0 0 0 0 0 0 0 0 0 0 0 0 0 0 0 0 0 0 0 0 0 0 0 0 0
0 0 0 0 0 0 0 0 0 0 0 0 0 1 0 0 0 0 0 0 0 0 0 0 0 0 0 0 0 0 0 0 0 0 0 0 0 0 0 0 0 0 0 0 0 0 0 0 0
0 0 0 0 0 0 0 0 0 0 0 0 0 0 0 0 0 0 0 0 0 0 0 0 0 0 0 0 0 0 0 0 0 0 0 0 0 0 0 0 0 0 0 0 0 0 0 0 0
0 0 0 0 0 0 0 0 0 0 0 0 0 0 0 0 0 0 0 0 0 0 0 0 0 0 0 0 0 0 0 0 0 0 0 0 0 0 0 0 0 0 0 0 0 0 0 0 0
0 0 0 0 0 0 0 0 0 0 0 0 0 0 0 0 0 0 0 0 0 0 0 0 0 0 0 0 0 0 0 0 0 0 0 0 0 0 0 0 0 0 0 0 0 0 0 0 0
0 0 0 0 0 0 0 0 0 0 0 0 0 0 0 0 0 0 0 0 0 0 0 0 0 0 0 0 0 0 0 0 0 0 0 0 0 0 0 0 0 0 0 0 0 0 0 0 0
0 0 0 0 0 0 0 0 0 0 0 0 0 0 0 0 0 0 0 0 0 0 0 0 0 0 0 0 0 0 0 0 0 0 0 0 0 0 0 0 0 0 0 0 0 0 0 0 0
0 0 0 0 0 0 0 0 0 0 0 0 0 0 0 0 0 0 0 0 0 0 0 0 0 0 0 0 0 0 0 0 0 0 0 0 0 0 0 0 0 0 0 0 0 0 0 0 0
0 0 0 0 0 0 0 0 0 0 0 0 0 0 0 0 0 0 0 0 0 0 0 0 0 0 0 0 0 0 0 0 0 0 0 0 0 0 0 0 0 0 0 0 0 0 0 0 0
0 0 0 0 0 0 0 0 0 0 0 0 0 0 0 0 0 0 0 0 0 0 0 0 0 0 0 0 0 0 0 0 0 0 0 0 0 0 0 0 0 0 0 0 0 0 0 0 0
0 0 0 0 0 0 0 0 0 0 0 0 0 0 0 0 0 0 0 0 0 0 0 0 0 0 0 0 0 0 0 0 0 0 0 0 0 0 0 0 0 0 0 0 0 0 0 0 0
0 0 0 0 0 0 0 0 0 0 0 0 0 0 0 0 0 0 0 0 0 0 0 0 0 0 0 0 0 0 0 0 0 0 0 0 0 0 0 0 0 0 0 0 0 0 0 0 0
0 0 0 0 0 0 0 0 0 0 0 0 0 0 0 0 0 0 0 0 0 0 0 0 0 0 0 0 0 0 0 0 0 0 0 0 0 0 0 0 0 0 0 0 0 0 0 0 0
0 0 0 0 0 0 0 0 0 0 0 0 0 0 0 0 0 0 0 0 0 0 0 0 0 0 0 0 0 0 0 0 0 0 0 0 0 0 0 0 0 0 0 0 0 0 0 0 0
0 0 0 0 0 0 0 0 0 0 0 0 0 0 0 0 0 0 0 0 0 0 1 1 0 0 0 0 0 0 0 0 0 0 0 0 0 0 0 0 0 0 0 0 0 0 0 0 0
0 0 0 0 0 0 0 0 0 0 0 0 0 0 0 0 0 0 0 0 0 0 1 1 1 1 1 0 0 0 0 0 0 0 0 0 0 0 0 0 0 0 0 0 0 0 0 0 0
0 0 0 0 0 0 0 0 0 0 0 0 0 0 0 0 0 0 0 0 0 0 0 0 1 1 1 0 0 0 0 0 0 0 0 0 0 0 0 0 0 0 0 0 0 0 0 0 0
0 0 0 0 0 0 0 0 0 0 0 0 0 0 0 0 0 0 0 0 0 0 0 0 0 1 1 1 0 0 0 0 0 0 0 0 0 0 0 0 0 0 0 0 0 0 0 0 0
Wind_Speed
1 3 2 2 5 6 2 2 1 1 1 1 3 4 5 3 2 2 1 6 8 8 7 9 11 11 11 11 11 11 11 11 12 12 12 12 12 11 11 11 11 10 10 11 11 11 11 11 11
2 2 2 4 6 3 3 2 1 1 2 2 3 4 5 3 3 5 3 6 9 8 6 8 11 11 11 11 11 10 10 11 11 11 11 11 11 11 11 11 10 10 10 10 10 10 10 10 10
2 1 3 5 4 3 2 2 1 1 1 1 3 4 3 3 4 4 4 9 8 7 6 8 12 12 11 11 11 10 10 10 10 10 11 10 11 10 10 10 10 10 9 9 10 10 9 9 9
2 3 5 5 1 3 3 2 1 2 1 4 3 4 3 2 4 5 9 10 9 7 6 7 12 12 12 11 11 11 10 10 9 9 10 10 10 9 9 9 9 9 9 9 9 8 8 8 9
3 4 6 3 2 3 2 2 2 2 1 2 3 3 2 3 6 9 10 9 9 7 5 6 11 11 11 11 11 10 10 9 9 9 9 9 9 8 8 8 8 8 7 8 8 7 7 7 8
5 5 5 1 3 3 1 1 2 2 2 1 3 3 1 2 6 8 8 7 6 6 5 5 11 11 10 10 10 10 9 9 8 8 8 8 8 7 8 7 7 7 6 6 6 6 6 6 7
5 5 3 1 2 2 1 0 2 3 2 1 3 4 1 2 4 7 6 6 5 4 5 4 4 6 9 10 9 9 9 8 8 8 7 7 7 7 6 6 6 6 5 5 5 5 5 5 6
5 5 2 0 1 2 1 1 1 3 2 2 3 5 4 5 6 7 6 5 4 4 4 4 3 3 3 4 8 9 8 8 7 7 7 6 6 6 5 4 5 5 5 5 4 4 5 5 5
4 5 1 3 3 3 1 1 0 1 3 2 1 2 4 11 10 8 6 4 4 4 3 3 3 3 3 3 5 5 6 6 6 4 5 4 2 2 2 3 4 4 4 4 4 4 4 5 4
4 3 5 4 4 3 1 1 2 2 1 1 2 4 9 12 11 10 8 8 7 7 5 4 4 4 3 3 2 2 2 2 2 1 2 2 1 1 1 2 2 2 3 3 4 4 3 3 2
3 5 4 3 3 3 2 1 2 5 3 5 6 8 11 11 10 9 8 8 8 7 6 5 5 5 4 2 2 1 1 1 1 1 2 1 1 1 1 1 1 1 1 1 1 2 2 2 2
2 4 3 3 2 2 3 2 2 4 6 5 8 12 13 11 11 10 9 8 6 6 6 5 5 5 4 3 2 2 1 1 1 1 2 2 1 1 1 1 0 1 0 1 1 1 2 2 2
2 3 2 2 1 2 2 2 2 3 2 4 9 11 11 10 8 6 6 5 5 6 6 5 5 5 4 4 3 3 2 2 1 1 1 2 2 1 1 0 0 0 1 1 1 1 2 1 1
2 2 4 2 1 1 3 0 1 3 3 8 10 9 8 8 7 5 5 5 6 6 6 5 6 5 5 4 3 3 3 2 1 1 1 2 2 2 1 1 1 0 0 1 1 2 2 1 1
1 3 5 3 1 1 3 2 2 3 5 7 8 7 7 6 5 6 6 6 6 6 5 6 6 6 5 4 4 3 3 3 2 1 1 2 2 2 2 1 1 0 1 1 1 1 1 1 1
2 2 2 5 2 0 4 3 4 1 6 6 6 6 5 4 5 4 4 4 4 5 5 5 6 6 5 4 3 3 3 3 2 1 1 2 2 2 2 1 1 1 2 1 1 1 1 0 0
3 1 2 4 2 2 3 3 3 1 5 5 5 6 5 4 2 3 4 4 4 4 4 4 4 5 5 5 4 3 3 2 2 1 1 2 2 2 2 1 1 2 2 1 1 1 1 1 0
3 2 2 3 2 2 1 3 3 0 4 5 4 4 4 4 3 2 3 4 4 4 4 4 4 3 4 4 3 2 2 1 1 1 2 2 2 2 2 1 1 2 2 1 1 1 1 1 1
3 3 3 4 2 1 1 2 3 1 2 2 3 4 4 4 2 3 3 4 4 4 3 4 4 3 4 3 3 3 2 1 1 1 2 2 2 2 2 2 1 2 2 2 2 2 1 1 1
3 2 3 3 1 1 0 2 2 1 3 4 5 5 5 4 3 3 3 4 4 4 3 3 3 4 3 3 3 2 2 2 1 1 1 1 2 2 2 2 2 2 2 2 2 2 2 1 1
4 5 5 3 2 2 2 4 3 1 0 0 2 3 4 5 6 5 4 4 3 3 4 4 3 3 3 3 3 3 2 2 1 0 0 1 1 2 1 2 2 2 2 2 2 2 3 2 1
5 6 5 3 2 2 1 2 5 2 1 1 2 3 4 4 5 4 5 5 5 4 3 3 3 3 3 4 4 4 3 3 2 1 1 1 1 1 2 2 2 2 2 2 2 2 2 2 2
6 2 3 2 3 0 0 2 6 1 2 5 4 4 4 4 5 5 5 5 4 3 3 2 3 2 2 3 4 4 3 2 1 1 1 1 0 1 1 2 2 2 2 2 2 2 2 2 2
3 5 5 5 4 1 4 4 5 4 6 5 4 4 5 5 5 4 4 4 3 2 3 3 3 2 2 3 3 4 4 3 3 2 1 1 0 0 1 2 2 2 2 2 2 2 3 2 2
4 6 3 3 2 5 2 3 7 5 4 5 5 5 5 5 5 5 5 5 4 3 3 3 3 2 2 3 3 3 4 4 4 3 2 1 1 0 1 1 1 1 1 2 2 2 2 3 3
4 8 8 5 5 4 1 5 6 3 1 2 3 3 3 4 5 6 6 5 5 4 4 4 4 3 3 3 3 2 3 3 2 3 3 2 2 2 1 1 1 1 1 2 2 1 2 2 3
5 4 5 6 2 1 4 4 5 0 0 0 1 1 2 4 4 5 5 5 4 4 4 4 4 3 3 3 3 2 3 3 3 3 3 2 2 2 1 1 1 1 1 1 2 1 2 2 2
4 8 6 5 5 3 3 3 4 4 3 2 2 2 2 2 3 3 3 4 3 3 3 3 4 5 4 3 3 3 2 2 3 3 3 2 2 1 1 1 1 1 1 1 2 1 1 2 2
3 3 4 4 5 6 3 6 4 6 5 4 4 3 3 3 3 3 3 3 2 2 3 3 3 3 4 4 3 2 2 2 2 2 3 3 2 2 2 2 2 2 1 1 1 2 2 2 2
3 5 7 5 4 4 4 7 3 3 3 3 3 2 2 3 3 3 3 3 2 2 2 2 3 3 4 4 3 3 3 3 3 3 3 3 3 2 3 2 2 2 2 2 2 2 2 2 2
Wind_Direction
175 119 121 87 56 49 20 297 277 5 37 36 83 98 110 111 149 163 129 133 133 140 148 151 149 145 140 134 129 125 123 123 124 123 123 122 124 124 124 123 121 120 119 117 114 113 112 111 113
142 140 80 60 76 58 306 278 281 248 159 136 80 84 81 71 72 110 126 139 136 141 143 151 152 148 144 139 135 133 129 127 127 127 127 127 126 127 128 126 124 122 122 121 117 115 114 113 115
167 151 82 69 87 159 234 261 235 68 128 102 73 61 84 121 132 147 153 139 132 139 144 159 155 151 147 144 143 139 134 131 132 132 132 132 130 131 130 129 127 124 123 121 120 119 119 117 118
111 52 54 67 74 225 222 249 172 125 37 48 88 69 60 83 147 147 136 139 137 142 149 163 158 154 151 149 148 145 139 134 135 137 138 137 133 130 130 130 129 128 126 126 124 123 122 121 124
66 73 57 40 307 277 248 241 147 107 59 50 94 94 46 22 103 125 136 143 144 147 154 165 160 157 155 152 150 147 145 140 137 141 142 140 136 133 132 132 130 126 126 128 128 128 125 124 127
58 64 75 15 308 305 275 215 132 84 77 72 105 103 45 90 114 134 137 139 144 150 153 161 165 161 158 156 153 151 149 148 140 138 140 141 139 136 135 133 132 131 130 128 130 132 131 133 137
98 89 123 186 288 311 290 121 120 134 136 171 128 110 115 149 136 129 124 124 130 141 149 156 162 163 164 162 158 156 156 156 149 146 145 146 148 146 143 140 139 139 136 133 134 137 138 143 146
119 100 92 263 235 275 254 98 131 136 153 125 117 144 186 181 135 116 106 109 127 142 158 157 151 145 151 164 168 164 162 159 157 157 157 154 152 154 152 151 152 151 148 146 144 145 151 153 152
91 80 168 219 199 250 263 91 93 114 114 114 109 166 164 138 132 123 119 124 152 170 173 164 160 154 150 162 172 165 164 162 159 159 156 144 124 125 145 159 159 159 157 157 154 147 147 146 146
94 135 218 215 191 206 246 158 163 97 103 115 60 80 124 138 147 151 160 170 181 187 188 180 174 167 163 173 153 129 143 139 140 134 134 119 115 122 133 132 143 141 141 155 153 136 137 138 111
146 190 223 235 210 189 185 166 139 139 216 210 182 155 148 153 159 168 177 183 189 186 186 181 179 173 168 162 145 130 114 114 127 136 139 121 107 96 90 89 59 50 86 96 108 98 105 110 114
174 245 220 242 197 176 184 168 149 184 228 208 169 154 156 165 174 180 185 188 179 174 187 181 177 170 169 161 152 139 130 131 156 159 147 143 140 131 120 108 93 63 78 115 106 109 118 120 130
212 266 265 238 248 182 157 179 186 250 263 128 136 146 161 171 180 184 183 175 168 178 185 184 178 174 166 158 160 154 154 164 173 167 164 162 155 152 138 126 97 118 132 139 131 132 128 132 145
244 274 300 303 305 187 146 284 96 285 123 123 140 152 162 170 172 170 175 174 177 183 185 177 174 172 164 167 162 156 148 155 157 166 180 170 164 158 146 136 107 98 127 136 140 141 139 140 138
314 335 334 326 349 209 117 7 282 260 141 139 154 158 162 168 167 182 188 182 179 179 174 174 172 165 166 166 162 150 151 152 162 176 170 165 163 159 153 137 124 139 123 112 99 104 120 141 153
53 45 318 308 352 50 127 247 288 176 145 157 161 161 170 176 176 181 176 173 172 165 166 173 171 163 161 156 150 142 145 146 158 153 149 152 153 154 144 137 152 138 128 129 135 131 111 92 149
37 141 251 302 345 60 120 234 284 138 155 166 172 173 178 175 176 176 165 162 164 162 159 161 153 155 155 146 140 139 136 141 153 149 151 150 150 155 146 150 156 127 128 146 174 131 150 168 187
222 211 249 265 312 71 143 248 297 172 161 175 174 168 165 177 199 167 145 140 140 141 145 149 139 137 139 137 131 125 120 133 143 160 162 151 157 157 149 150 150 130 131 142 158 154 141 145 170
176 183 242 258 255 112 220 254 275 257 163 173 171 162 168 185 163 109 112 118 117 113 123 136 136 144 143 145 151 152 176 172 171 173 162 157 159 161 158 167 159 153 151 160 161 163 143 108 106
181 206 250 284 317 118 353 311 298 220 196 192 186 179 177 163 122 121 125 124 130 139 140 143 152 158 155 159 156 148 145 149 161 171 142 158 167 177 179 169 170 170 154 146 157 153 153 138 126
216 197 212 227 356 28 78 338 328 322 16 172 182 173 163 170 169 165 163 154 146 153 165 163 169 158 153 136 120 109 94 81 100 141 184 216 184 174 179 176 171 170 165 174 182 173 164 172 166
241 224 194 184 126 277 120 272 289 274 307 259 229 192 181 178 164 165 169 174 177 178 169 160 159 150 140 139 144 149 159 171 189 186 190 182 167 178 183 177 172 172 173 176 187 172 170 164 183
216 203 165 169 158 182 336 171 279 296 251 252 238 215 205 188 174 176 179 184 177 165 156 157 144 130 124 134 151 153 157 168 147 120 116 121 146 165 172 173 166 164 172 175 171 163 171 173 177
152 76 62 53 82 239 228 174 263 231 220 234 231 216 209 192 182 175 169 153 141 146 155 149 139 133 132 137 144 157 161 156 139 139 150 146 59 101 178 166 165 172 174 174 179 177 180 191 185
112 100 47 360 10 244 225 175 240 241 221 210 214 218 208 191 180 172 166 163 161 162 175 159 147 145 140 140 145 171 177 168 171 175 177 178 184 241 249 183 177 184 193 187 178 176 190 191 190
173 145 158 193 217 262 269 219 245 245 230 220 203 198 193 188 186 183 181 176 173 173 173 172 170 171 162 159 169 172 176 175 183 182 179 192 207 219 217 190 190 195 195 191 174 178 195 188 201
143 169 160 136 156 203 262 277 298 276 44 186 191 159 190 195 189 186 180 176 175 181 185 181 179 180 179 179 173 175 178 180 183 186 182 197 206 200 175 172 191 223 203 191 173 190 202 192 202
140 144 107 126 154 228 266 255 238 229 227 229 219 208 218 208 187 175 175 177 181 191 185 172 179 189 190 186 187 187 190 194 186 171 185 196 198 195 182 187 191 207 213 193 177 193 202 186 206
108 110 119 130 158 163 224 259 230 213 208 205 210 210 211 200 186 179 181 176 171 176 170 175 185 190 188 186 185 184 194 187 186 184 190 189 185 188 204 210 199 200 202 192 176 198 194 198 212
156 164 149 157 205 176 177 257 286 201 199 189 206 217 202 188 179 169 161 146 152 164 171 184 191 197 199 188 182 185 196 189 191 194 199 191 189 198 213 212 213 214 204 191 190 206 206 205 211